Time,TemperatureF,DewpointF,PressureIn,WindDirection,WindDirectionDegrees,WindSpeedMPH,WindSpeedGustMPH,Humidity,HourlyPrecipIn,Conditions,Clouds,dailyrainin,SoftwareType,DateUTC
2013-04-30 00:02:00,56.0,50.0,30.01,South,180,0.0,0.0,81,0.00,,,0.10,,2013-04-30 04:02:00,
2013-04-30 00:12:00,56.0,50.0,30.01,South,180,0.0,0.0,81,0.00,,,0.10,,2013-04-30 04:12:00,
2013-04-30 00:22:00,56.0,50.0,30.01,South,180,0.0,0.0,81,0.00,,,0.10,,2013-04-30 04:22:00,
2013-04-30 00:32:00,55.0,49.0,30.02,South,180,0.0,0.0,81,0.00,,,0.10,,2013-04-30 04:32:00,
2013-04-30 00:42:00,55.0,49.0,30.02,South,180,0.0,0.0,81,0.00,,,0.10,,2013-04-30 04:42:00,
2013-04-30 00:52:00,55.0,49.0,30.02,South,180,0.0,0.0,81,0.00,,,0.10,,2013-04-30 04:52:00,
2013-04-30 01:02:00,55.0,49.0,30.02,North,0,0.0,0.0,81,0.00,,,0.10,,2013-04-30 05:02:00,
2013-04-30 01:12:00,55.0,49.0,30.02,North,0,0.0,0.0,81,0.00,,,0.10,,2013-04-30 05:12:00,
2013-04-30 01:22:00,55.0,50.0,30.02,North,0,0.0,0.0,82,0.00,,,0.10,,2013-04-30 05:22:00,
2013-04-30 01:31:00,55.0,50.0,30.02,NNE,22,0.0,0.0,82,0.00,,,0.10,,2013-04-30 05:31:00,
2013-04-30 01:42:00,55.0,50.0,30.02,NNE,22,0.0,0.0,82,0.00,,,0.10,,2013-04-30 05:42:00,
2013-04-30 01:51:00,55.0,50.0,30.02,NNE,22,0.0,0.0,82,0.00,,,0.10,,2013-04-30 05:51:00,
2013-04-30 02:02:00,55.0,50.0,30.01,East,90,0.0,0.0,82,0.00,,,0.10,,2013-04-30 06:02:00,
2013-04-30 02:12:00,55.0,50.0,30.01,North,0,0.0,0.0,82,0.00,,,0.10,,2013-04-30 06:12:00,
2013-04-30 02:21:00,55.0,50.0,30.01,North,0,0.0,0.0,82,0.00,,,0.10,,2013-04-30 06:21:00,
2013-04-30 02:32:00,55.0,50.0,30.01,North,0,0.0,0.0,82,0.00,,,0.10,,2013-04-30 06:32:00,
2013-04-30 02:41:00,55.0,50.0,30.01,North,0,0.0,0.0,82,0.00,,,0.10,,2013-04-30 06:41:00,
2013-04-30 02:52:00,55.0,50.0,30.01,North,0,0.0,0.0,82,0.00,,,0.10,,2013-04-30 06:52:00,
2013-04-30 03:01:00,55.0,50.0,30.01,NNW,338,0.0,0.0,82,0.00,,,0.10,,2013-04-30 07:01:00,
2013-04-30 03:11:00,55.0,50.0,30.01,NNW,338,0.0,0.0,82,0.00,,,0.10,,2013-04-30 07:11:00,
2013-04-30 03:21:00,54.0,49.0,30.01,NE,45,0.0,0.0,82,0.00,,,0.10,,2013-04-30 07:21:00,
2013-04-30 03:32:00,54.0,49.0,30.01,NE,45,0.0,0.0,82,0.00,,,0.10,,2013-04-30 07:32:00,
2013-04-30 03:42:00,54.0,49.0,30.01,NE,45,0.0,0.0,82,0.00,,,0.10,,2013-04-30 07:42:00,
2013-04-30 03:52:00,54.0,48.0,30.02,NNE,22,0.0,0.0,81,0.00,,,0.10,,2013-04-30 07:52:00,
2013-04-30 04:02:00,54.0,48.0,30.02,ENE,68,0.0,0.0,81,0.00,,,0.10,,2013-04-30 08:02:00,
2013-04-30 04:11:00,54.0,48.0,30.02,ENE,68,0.0,0.0,81,0.00,,,0.10,,2013-04-30 08:11:00,
2013-04-30 04:22:00,54.0,48.0,30.02,NE,45,0.0,0.0,81,0.00,,,0.10,,2013-04-30 08:22:00,
2013-04-30 04:32:00,53.0,47.0,30.02,NE,45,0.0,0.0,81,0.00,,,0.10,,2013-04-30 08:32:00,
2013-04-30 04:42:00,53.0,47.0,30.02,NE,45,0.0,0.0,81,0.00,,,0.10,,2013-04-30 08:42:00,
2013-04-30 04:52:00,53.0,47.0,30.03,NE,45,0.0,0.0,81,0.00,,,0.10,,2013-04-30 08:52:00,
2013-04-30 05:01:00,53.0,47.0,30.04,NE,45,0.0,0.0,81,0.00,,,0.10,,2013-04-30 09:01:00,
2013-04-30 05:11:00,53.0,47.0,30.04,NE,45,0.0,0.0,81,0.00,,,0.10,,2013-04-30 09:11:00,
2013-04-30 05:22:00,53.0,48.0,30.05,NE,45,0.0,0.0,82,0.00,,,0.10,,2013-04-30 09:22:00,
2013-04-30 05:33:00,53.0,48.0,30.05,NE,45,0.0,0.0,82,0.00,,,0.10,,2013-04-30 09:33:00,
2013-04-30 05:43:00,53.0,48.0,30.05,NE,45,0.0,0.0,82,0.00,,,0.10,,2013-04-30 09:43:00,
2013-04-30 05:52:00,53.0,48.0,30.06,NE,45,0.0,0.0,82,0.00,,,0.10,,2013-04-30 09:52:00,
2013-04-30 06:03:00,53.0,48.0,30.06,NE,45,0.0,0.0,82,0.00,,,0.10,,2013-04-30 10:03:00,
2013-04-30 06:12:00,53.0,48.0,30.06,NE,45,0.0,0.0,82,0.00,,,0.10,,2013-04-30 10:12:00,
2013-04-30 06:22:00,53.0,47.0,30.06,NE,45,0.0,0.0,81,0.00,,,0.10,,2013-04-30 10:22:00,
2013-04-30 06:32:00,53.0,47.0,30.06,NE,45,0.0,0.0,81,0.00,,,0.10,,2013-04-30 10:32:00,
2013-04-30 06:41:00,53.0,47.0,30.06,NE,45,0.0,0.0,81,0.00,,,0.10,,2013-04-30 10:41:00,
2013-04-30 06:52:00,52.0,46.0,30.07,North,0,0.0,0.0,81,0.00,,,0.10,,2013-04-30 10:52:00,
2013-04-30 07:02:00,52.0,46.0,30.07,North,0,0.0,0.0,81,0.00,,,0.10,,2013-04-30 11:02:00,
2013-04-30 07:11:00,52.0,46.0,30.07,North,0,0.0,0.0,81,0.00,,,0.10,,2013-04-30 11:11:00,
2013-04-30 07:21:00,52.0,46.0,30.07,NNE,30,0.0,0.0,81,0.00,,,0.10,,2013-04-30 11:21:00,
2013-04-30 07:32:00,52.0,46.0,30.08,ENE,68,0.0,0.0,81,0.00,,,0.10,,2013-04-30 11:32:00,
2013-04-30 07:42:00,52.0,46.0,30.08,ENE,68,0.0,0.0,81,0.00,,,0.10,,2013-04-30 11:42:00,
2013-04-30 07:52:00,52.0,46.0,30.08,ENE,68,0.0,0.0,81,0.00,,,0.10,,2013-04-30 11:52:00,
2013-04-30 08:01:00,52.0,46.0,30.08,NE,45,0.0,0.0,81,0.00,,,0.10,,2013-04-30 12:01:00,
2013-04-30 08:11:00,52.0,46.0,30.08,NE,45,0.0,0.0,81,0.00,,,0.10,,2013-04-30 12:11:00,
2013-04-30 08:21:00,53.0,48.0,30.09,NNE,22,0.0,0.0,82,0.00,,,0.10,,2013-04-30 12:21:00,
2013-04-30 08:31:00,53.0,48.0,30.10,NNE,22,0.0,0.0,82,0.00,,,0.10,,2013-04-30 12:31:00,
2013-04-30 08:41:00,53.0,48.0,30.10,NNE,22,0.0,0.0,82,0.00,,,0.10,,2013-04-30 12:41:00,
2013-04-30 08:51:00,53.0,48.0,30.10,NNE,22,0.0,0.0,82,0.00,,,0.10,,2013-04-30 12:51:00,
2013-04-30 09:01:00,54.0,48.0,30.10,ENE,68,0.0,2.0,80,0.00,,,0.10,,2013-04-30 13:01:00,
2013-04-30 09:11:00,54.0,48.0,30.10,ENE,68,0.0,2.0,80,0.00,,,0.10,,2013-04-30 13:11:00,
2013-04-30 09:21:00,54.0,48.0,30.11,NE,44,1.0,3.0,80,0.00,,,0.10,,2013-04-30 13:21:00,
2013-04-30 09:31:00,54.0,48.0,30.11,WSW,248,0.0,0.0,80,0.00,,,0.10,,2013-04-30 13:31:00,
2013-04-30 09:41:00,54.0,48.0,30.11,WSW,248,0.0,0.0,80,0.00,,,0.10,,2013-04-30 13:41:00,
2013-04-30 09:51:00,56.0,49.0,30.10,NE,41,1.0,5.0,78,0.00,,,0.10,,2013-04-30 13:51:00,
2013-04-30 10:02:00,57.0,50.0,30.10,NE,51,0.0,5.0,77,0.00,,,0.10,,2013-04-30 14:02:00,
2013-04-30 10:11:00,57.0,50.0,30.10,East,86,0.0,5.0,76,0.00,,,0.10,,2013-04-30 14:11:00,
2013-04-30 10:21:00,57.0,50.0,30.10,East,86,0.0,5.0,76,0.00,,,0.10,,2013-04-30 14:21:00,
2013-04-30 10:31:00,59.0,51.0,30.11,East,87,0.0,0.0,74,0.00,,,0.10,,2013-04-30 14:31:00,
2013-04-30 10:41:00,59.0,51.0,30.11,East,87,0.0,0.0,74,0.00,,,0.10,,2013-04-30 14:41:00,
2013-04-30 10:52:00,59.0,51.0,30.11,North,0,0.0,3.0,74,0.00,,,0.10,,2013-04-30 14:52:00,
2013-04-30 11:02:00,60.0,51.0,30.11,ENE,62,0.0,0.0,73,0.00,,,0.08,,2013-04-30 15:02:00,
2013-04-30 11:11:00,60.0,51.0,30.11,ENE,62,0.0,0.0,73,0.00,,,0.08,,2013-04-30 15:11:00,
2013-04-30 11:21:00,62.0,52.0,30.11,East,86,0.0,2.0,71,0.00,,,0.06,,2013-04-30 15:21:00,
2013-04-30 11:32:00,64.0,53.0,30.11,NE,36,1.0,3.0,68,0.00,,,0.06,,2013-04-30 15:32:00,
2013-04-30 11:42:00,64.0,53.0,30.11,NE,36,1.0,3.0,68,0.00,,,0.06,,2013-04-30 15:42:00,
2013-04-30 11:52:00,65.0,53.0,30.10,East,86,0.0,3.0,66,0.00,,,0.04,,2013-04-30 15:52:00,
2013-04-30 12:02:00,66.0,54.0,30.10,NE,45,0.0,1.0,66,0.00,,,0.04,,2013-04-30 16:02:00,
2013-04-30 12:12:00,66.0,54.0,30.10,NE,45,0.0,1.0,66,0.00,,,0.04,,2013-04-30 16:12:00,
2013-04-30 12:23:00,66.0,53.0,30.10,NE,47,0.0,0.0,64,0.00,,,0.04,,2013-04-30 16:23:00,
2013-04-30 12:33:00,68.0,54.0,30.10,NNE,21,0.0,1.0,62,0.00,,,0.04,,2013-04-30 16:33:00,
2013-04-30 12:42:00,68.0,54.0,30.10,NNE,21,0.0,1.0,62,0.00,,,0.04,,2013-04-30 16:42:00,
2013-04-30 12:52:00,68.0,54.0,30.10,NE,38,0.0,3.0,61,0.00,,,0.04,,2013-04-30 16:52:00,
2013-04-30 13:02:00,68.0,54.0,30.10,NE,38,0.0,3.0,61,0.00,,,0.04,,2013-04-30 17:02:00,
2013-04-30 13:12:00,68.0,54.0,30.10,NE,38,0.0,3.0,61,0.00,,,0.04,,2013-04-30 17:12:00,
2013-04-30 13:22:00,69.0,54.0,30.10,ENE,66,0.0,3.0,59,0.00,,,0.04,,2013-04-30 17:22:00,
2013-04-30 13:32:00,69.0,54.0,30.10,South,191,1.0,2.0,58,0.00,,,0.04,,2013-04-30 17:32:00,
2013-04-30 13:42:00,69.0,54.0,30.10,South,191,1.0,2.0,58,0.00,,,0.04,,2013-04-30 17:42:00,
2013-04-30 13:53:00,69.0,54.0,30.10,NNE,16,1.0,2.0,58,0.00,,,0.04,,2013-04-30 17:53:00,
2013-04-30 14:01:00,69.0,54.0,30.09,ENE,71,1.0,3.0,58,0.00,,,0.04,,2013-04-30 18:01:00,
2013-04-30 14:11:00,69.0,54.0,30.09,ENE,71,1.0,3.0,58,0.00,,,0.04,,2013-04-30 18:11:00,
2013-04-30 14:22:00,69.0,53.0,30.09,ESE,106,0.0,1.0,56,0.00,,,0.04,,2013-04-30 18:22:00,
2013-04-30 14:32:00,69.0,53.0,30.09,NE,45,2.0,6.0,56,0.00,,,0.04,,2013-04-30 18:32:00,
2013-04-30 14:42:00,69.0,53.0,30.09,NE,45,2.0,6.0,56,0.00,,,0.04,,2013-04-30 18:42:00,
2013-04-30 14:51:00,68.0,52.0,30.10,NNE,32,1.0,7.0,57,0.00,,,0.04,,2013-04-30 18:51:00,
2013-04-30 15:01:00,68.0,52.0,30.10,ENE,64,0.0,5.0,57,0.00,,,0.04,,2013-04-30 19:01:00,
2013-04-30 15:11:00,68.0,52.0,30.10,ENE,64,0.0,5.0,57,0.00,,,0.04,,2013-04-30 19:11:00,
2013-04-30 15:22:00,69.0,53.0,30.10,NE,42,0.0,0.0,56,0.00,,,0.04,,2013-04-30 19:22:00,
2013-04-30 15:32:00,69.0,53.0,30.10,NE,55,0.0,3.0,56,0.00,,,0.04,,2013-04-30 19:32:00,
2013-04-30 15:42:00,69.0,53.0,30.10,NE,55,0.0,3.0,56,0.00,,,0.04,,2013-04-30 19:42:00,
2013-04-30 15:52:00,69.0,53.0,30.10,NE,37,1.0,3.0,56,0.00,,,0.04,,2013-04-30 19:52:00,
2013-04-30 16:02:00,69.0,52.0,30.10,NE,48,2.0,6.0,55,0.00,,,0.04,,2013-04-30 20:02:00,
2013-04-30 16:11:00,69.0,52.0,30.10,NE,48,2.0,6.0,55,0.00,,,0.04,,2013-04-30 20:11:00,
2013-04-30 16:21:00,69.0,53.0,30.09,North,4,0.0,0.0,56,0.00,,,0.04,,2013-04-30 20:21:00,
2013-04-30 16:32:00,69.0,53.0,30.09,NE,53,0.0,1.0,56,0.00,,,0.04,,2013-04-30 20:32:00,
2013-04-30 16:42:00,69.0,53.0,30.09,NE,53,0.0,1.0,56,0.00,,,0.04,,2013-04-30 20:42:00,
2013-04-30 16:52:00,69.0,52.0,30.09,East,90,0.0,5.0,55,0.00,,,0.04,,2013-04-30 20:52:00,
2013-04-30 17:02:00,69.0,52.0,30.09,ENE,69,0.0,1.0,55,0.00,,,0.04,,2013-04-30 21:02:00,
2013-04-30 17:11:00,69.0,52.0,30.10,NE,50,1.0,5.0,55,0.00,,,0.04,,2013-04-30 21:11:00,
2013-04-30 17:22:00,69.0,52.0,30.10,NE,50,1.0,5.0,55,0.00,,,0.04,,2013-04-30 21:22:00,
2013-04-30 17:32:00,68.0,51.0,30.10,NNW,336,0.0,0.0,55,0.00,,,0.04,,2013-04-30 21:32:00,
2013-04-30 17:42:00,68.0,51.0,30.10,NNW,336,0.0,0.0,55,0.00,,,0.04,,2013-04-30 21:42:00,
2013-04-30 17:52:00,67.0,51.0,30.10,NE,40,0.0,6.0,56,0.00,,,0.04,,2013-04-30 21:52:00,
2013-04-30 18:02:00,67.0,51.0,30.11,NE,38,1.0,5.0,56,0.00,,,0.04,,2013-04-30 22:02:00,
2013-04-30 18:12:00,67.0,51.0,30.11,NE,38,1.0,5.0,56,0.00,,,0.04,,2013-04-30 22:12:00,
2013-04-30 18:23:00,66.0,50.0,30.11,East,81,0.0,3.0,57,0.00,,,0.04,,2013-04-30 22:23:00,
2013-04-30 18:32:00,65.0,50.0,30.11,ENE,63,1.0,6.0,58,0.00,,,0.04,,2013-04-30 22:32:00,
2013-04-30 18:42:00,65.0,50.0,30.11,ENE,63,1.0,6.0,58,0.00,,,0.04,,2013-04-30 22:42:00,
2013-04-30 18:52:00,65.0,50.0,30.11,NE,49,0.0,1.0,58,0.00,,,0.04,,2013-04-30 22:52:00,
2013-04-30 19:02:00,64.0,49.0,30.11,ENE,66,1.0,6.0,59,0.00,,,0.04,,2013-04-30 23:02:00,
2013-04-30 19:12:00,64.0,49.0,30.11,ENE,66,1.0,6.0,59,0.00,,,0.04,,2013-04-30 23:12:00,
2013-04-30 19:22:00,63.0,49.0,30.11,WSW,247,0.0,2.0,60,0.00,,,0.00,,2013-04-30 23:22:00,
2013-04-30 19:32:00,63.0,49.0,30.11,WSW,247,0.0,2.0,60,0.00,,,0.00,,2013-04-30 23:32:00,
2013-04-30 19:42:00,63.0,49.0,30.11,WSW,247,0.0,2.0,60,0.00,,,0.00,,2013-04-30 23:42:00,
2013-04-30 19:52:00,62.0,49.0,30.12,NNE,24,0.0,5.0,62,0.00,,,0.00,,2013-04-30 23:52:00,
2013-04-30 20:02:00,62.0,49.0,30.12,NNE,31,0.0,0.0,63,0.00,,,0.00,,2013-05-01 00:02:00,
2013-04-30 20:11:00,62.0,49.0,30.12,NNE,31,0.0,0.0,63,0.00,,,0.00,,2013-05-01 00:11:00,
2013-04-30 20:22:00,61.0,49.0,30.13,North,9,0.0,1.0,64,0.00,,,0.00,,2013-05-01 00:22:00,
2013-04-30 20:32:00,60.0,48.0,30.14,SW,236,0.0,0.0,65,0.00,,,0.00,,2013-05-01 00:32:00,
2013-04-30 20:42:00,60.0,48.0,30.14,SW,236,0.0,0.0,65,0.00,,,0.00,,2013-05-01 00:42:00,
2013-04-30 20:51:00,59.0,48.0,30.14,ENE,68,0.0,0.0,66,0.00,,,0.00,,2013-05-01 00:51:00,
2013-04-30 21:01:00,59.0,48.0,30.15,NW,315,0.0,0.0,66,0.00,,,0.00,,2013-05-01 01:01:00,
2013-04-30 21:11:00,59.0,48.0,30.15,NW,315,0.0,0.0,66,0.00,,,0.00,,2013-05-01 01:11:00,
2013-04-30 21:21:00,58.0,47.0,30.15,North,0,0.0,0.0,67,0.00,,,0.00,,2013-05-01 01:21:00,
2013-04-30 21:32:00,58.0,47.0,30.15,SW,225,0.0,0.0,68,0.00,,,0.00,,2013-05-01 01:32:00,
2013-04-30 21:42:00,58.0,47.0,30.15,SW,225,0.0,0.0,68,0.00,,,0.00,,2013-05-01 01:42:00,
2013-04-30 21:52:00,58.0,47.0,30.17,ENE,66,0.0,0.0,68,0.00,,,0.00,,2013-05-01 01:52:00,
2013-04-30 22:02:00,58.0,48.0,30.17,NNE,22,0.0,0.0,69,0.00,,,0.00,,2013-05-01 02:02:00,
2013-04-30 22:11:00,58.0,48.0,30.17,NNE,22,0.0,0.0,69,0.00,,,0.00,,2013-05-01 02:11:00,
2013-04-30 22:21:00,57.0,47.0,30.16,SE,139,0.0,0.0,70,0.00,,,0.00,,2013-05-01 02:21:00,
2013-04-30 22:32:00,57.0,48.0,30.17,North,0,0.0,0.0,71,0.00,,,0.00,,2013-05-01 02:32:00,
2013-04-30 22:42:00,57.0,48.0,30.17,North,0,0.0,0.0,71,0.00,,,0.00,,2013-05-01 02:42:00,
2013-04-30 22:52:00,56.0,47.0,30.16,East,92,0.0,0.0,72,0.00,,,0.00,,2013-05-01 02:52:00,
2013-04-30 23:02:00,56.0,47.0,30.17,NNE,27,0.0,3.0,73,0.00,,,0.00,,2013-05-01 03:02:00,
2013-04-30 23:11:00,56.0,47.0,30.17,NNE,27,0.0,3.0,73,0.00,,,0.00,,2013-05-01 03:11:00,
2013-04-30 23:21:00,56.0,47.0,30.17,SE,130,0.0,3.0,73,0.00,,,0.00,,2013-05-01 03:21:00,
2013-04-30 23:33:00,56.0,47.0,30.17,South,180,0.0,2.0,73,0.00,,,0.00,,2013-05-01 03:33:00,
2013-04-30 23:43:00,56.0,47.0,30.17,South,180,0.0,2.0,73,0.00,,,0.00,,2013-05-01 03:43:00,
2013-04-30 23:53:00,56.0,47.0,30.17,SW,230,0.0,0.0,73,0.00,,,0.00,,2013-05-01 03:53:00,